Regional Weather Roundup
Issued by NWS Goodland, KS

Home | Current Version | Previous Version | Graphics & Text | Print | Product List | Glossary On
Versions: 1 2 3 4 5 6 7 8 9 10 11 12 13 14 15 16 17 18 19 20 21 22 23 24 25 26 27 28 29 30 31 32 33 34 35 36 37 38 39 40 41 42 43 44 45 46 47 48 49 50
000
ASUS43 KGLD 101359
RWRGLD

GOODLAND FORECAST AREA HOURLY WEATHER ROUNDUP
NATIONAL WEATHER SERVICE GOODLAND KS
800 AM MDT THU JUL 10 2014

...OFFICIAL OBSERVATIONS...

CITY           SKY/WX    TMP DP  RH WIND       PRES   REMARKS
GOODLAND KS    CLOUDY    65  62  90 S21       30.03F
HILL CITY KS   SUNNY     71  63  75 S15       29.99R
IMPERIAL NEB   CLOUDY    68  62  81 S15       30.00R
MCCOOK NEB     SUNNY     71  63  75 S17G23    30.00R
AKRON CO       SUNNY     67  57  70 SE14      30.04R
BURLINGTON CO  MOSUNNY   66  61  84 SE15      30.05S
LIMON CO       SUNNY     70  53  54 E8        30.09R
$$

...UNOFFICIAL OBSERVATIONS...

CITY           SKY/WX    TMP DP  RH WIND       PRES   REMARKS
GOVE KS          N/A     70  32  24 CALM        N/A
NORTON KS      SUNNY     72  61  68 S18       29.98S
SHARON SPRINGS   N/A     67  65  93 SE17        N/A
WAKEENEY KS      N/A     69  60  72 MISG        N/A
YUMA CO          N/A     65  62  89 SE12        N/A
$$



USA.gov is the U.S. government's official web portal to all federal, state and local government web resources and services.